Погода в Гадамесе

Ливия     30°07′31″N   9°29′22″E
темп.,
°C
ветер,
м/с
пор.,
м/с
влажн.,
%
обл.,
%
осадки,
мм/ч
давл.,
гПа
погр.,
м
31 июля, сб
сб3123:00+33в33120 0.0 101413
02:00+31в33130 0.0 101312
05:00+29юв33140 0.0 101316
08:00+30ююв45160 0.0 101481
11:00+37ююв55110 0.0 1014933
14:00+40вюв3480 0.0 10122393
17:00+42в5870 0.0 10103432
20:00+38юв4580 0.0 101038
1 августа, вс
вс123:00+35вюв44100 0.0 101131
02:00+31ю23140 0.0 101125
05:00+30вюв23150 0.0 101011
08:00+31ююв33140 0.0 101235
11:00+39ююв4580 0.0 1012855
14:00+42вюв5970 0.0 10104367
17:00+43вюв6860 0.0 10084867
20:00+39вюв4480 0.0 100819
2 августа, пн
пн223:00+35юв3390 0.0 100912
02:00+33юв33100 0.0 100920
05:00+31вюв56120 0.0 100964
08:00+32вюв612120 0.0 1010211
11:00+40юв81060 0.0 10101160
14:00+43вюв81060 0.0 10094179
17:00+43в9960 0.0 10074329
20:00+39вюв6970 0.0 1007101
3 августа, вт
вт323:00+35вюв61190 0.0 1009133
02:00+33вюв714130 0.0 1009197
05:00+30в510160 0.0 1010123
08:00+30вюв612190 0.0 1011260
11:00+37юв77130 0.0 1011837
14:00+41вюв4470 0.0 10092610
17:00+42всв4460 0.0 10083245
20:00+38всв4480 0.0 100819
4 августа, ср
ср423:00+35всв44100 0.0 101030
02:00+32в56110 0.0 101063
05:00+30вюв58130 0.0 101077
08:00+30вюв513200 0.0 1012285
11:00+38вюв89150 0.0 10121003
14:00+43вюв5580 0.0 10103711
17:00+43в5570 0.0 10094125
20:00+39в3390 0.0 100912